Location: Edinburgh
(55.9500°N, 3.1600°W)
Time: 23:42:49
(UTC+01:00)

N. Korean satellite - Pass Details

Date: 13 October 2017
Orbit: 459 x 517 km, 97.2° (Epoch: 23 October)

Event Time Altitude Azimuth Distance (km) Brightness Sun altitude
Rises 20:07:04 0° 204° (SSW) 2,543 10.4 -16.2°
Reaches altitude 10° 20:09:38 10° 224° (SW) 1,657 9.7 -16.6°
Maximum altitude 20:12:10 18° 269° (W) 1,228 9.6 -16.9°
Drops below altitude 10° 20:14:41 10° 315° (NW) 1,647 10.1 -17.2°
Sets 20:17:13 0° 335° (NNW) 2,521 10.7 -17.6°
